Location: New Town
(33.2710°N, 90.7534°W)
Time: 12:24:24
(UTC+00:00)

Explorer 11/Cluster Stage 4 - Pass Details

Date: 13 May 2021
Orbit: 467 x 1257 km, 28.8° (Epoch: 14 June)

Event Time Altitude Azimuth Distance (km) Brightness Sun altitude
Rises 01:54:54 0° 236° (SW) 4,088 10.6 -12.1°
Reaches altitude 10° 01:57:53 10° 230° (SW) 3,178 9.9 -12.6°
Maximum altitude 02:05:28 43° 162° (SSE) 1,682 7.9 -14.0°
Enters shadow 02:11:30 16° 98° (E) 2,718 8.8 -15.0°
Drops below altitude 10° 02:12:57 10° 94° (E) 3,137 - -15.3°
Sets 02:15:52 0° 87° (E) 4,032 - -15.8°
